WA6MHA-15 Weather Reports


Display with metric or nautical units.
time (UTC)temp
F
wind
direction
speed
MPH
gust
MPH
rain 1hr
in
rain 24hr
in
rain mn
in
humidity
%
barometer
mb
20180818024015 76 236 3.0 3.0 0.00 0.00 0.00 82
20180818022806 77 264 0.0 2.0 0.00 0.00 0.00
20180818020949 78 181 2.0 6.0 0.00 0.00 0.00 100
20180818020041 79 226 4.0 5.0 0.00 0.00 0.00
20180818015739 79 227 3.0 5.0 0.00 0.00 0.00
20180818014527 80 177 3.0 6.0 0.00 0.00 0.00 84
20180818014226 80 239 0.0 6.0 0.00 0.00 0.00 83
20180818013924 81 241 4.0 5.0 0.00 0.00 0.00 80
20180818013622 81 247 5.0 5.0 0.00 0.00 0.00 79
20180818013318 81 181 0.0 5.0 0.00 0.00 0.00 78
20180818013018 81 232 3.0 8.0 0.00 0.00 0.00 78
20180818012716 81 281 0.0 8.0 0.00 0.00 0.00 77
20180818012112 81 157 0.0 8.0 0.00 0.00 0.00 74
20180818011506 82 284 0.0 6.0 0.00 0.00 0.00 74
20180818010559 83 293 2.0 7.0 0.00 0.00 0.00 72
20180818005955 82 267 6.0 9.0 0.00 0.00 0.00 72
20180818005350 82 296 3.0 7.0 0.00 0.00 0.00 72
20180818004745 83 243 3.0 7.0 0.00 0.00 0.00 72
20180818004443 84 286 2.0 6.0 0.00 0.00 0.00 71
20180818003838 83 302 1.0 5.0 0.00 0.00 0.00 70
20180818002629 84 333 1.0 8.0 0.00 0.00 0.00 70
20180818001722 83 239 6.0 7.0 0.00 0.00 0.00 69
20180818001419 84 277 6.0 8.0 0.00 0.00 0.00 68
20180818000512 83 296 0.0 11.0 0.00 0.00 0.00 68
20180818000210 84 248 2.0 11.0 0.00 0.00 0.00 69
20180817235908 83 300 7.0 8.0 0.00 0.00 0.00 69
20180817235605 83 243 3.0 11.0 0.00 0.00 0.00 69
20180817235302 83 244 3.0 11.0 0.00 0.00 0.00 69
20180817234959 84 282 5.0 9.0 0.00 0.00 0.00 69
20180817234658 84 205 3.0 10.0 0.00 0.00 0.00 68
20180817234501 83 216 0.0 10.0 0.00 0.00 0.00 69
20180817234355 83 216 0.0 10.0 0.00 0.00 0.00 69
20180817234052 83 262 7.0 12.0 0.00 0.00 0.00 69
20180817233146 83 324 4.0 7.0 0.00 0.00 0.00 69
20180817232845 83 315 0.0 7.0 0.00 0.00 0.00 69
20180817232541 83 265 2.0 8.0 0.00 0.00 0.00 69
20180817231939 84 149 6.0 12.0 0.00 0.00 0.00 68
20180817231334 84 296 5.0 11.0 0.00 0.00 0.00 67
20180817231030 84 357 5.0 10.0 0.00 0.00 0.00 68
20180817230427 86 156 2.0 14.0 0.00 0.00 0.00 65
20180817224915 86 167 1.0 10.0 0.00 0.00 0.00 63
20180817224010 87 291 3.0 13.0 0.00 0.00 0.00 63
20180817223707 86 272 2.0 13.0 0.00 0.00 0.00 63
20180817223102 86 46 0.0 11.0 0.00 0.00 0.00 63
20180817222152 87 309 3.0 10.0 0.00 0.00 0.00 62
20180817221850 87 105 1.0 10.0 0.00 0.00 0.00 62
20180817221548 87 289 3.0 9.0 0.00 0.00 0.00 62
20180817221027 86 306 4.0 12.0 0.00 0.00 0.00 62
20180817220945 86 306 4.0 12.0 0.00 0.00 0.00 62
20180817220941 86 306 4.0 12.0 0.00 0.00 0.00 62
20180817220339 88 106 5.0 10.0 0.00 0.00 0.00 61
20180817220036 88 272 7.0 12.0 0.00 0.00 0.00 60
20180817214827 89 123 2.0 13.0 0.00 0.00 0.00 60
20180817214225 88 298 6.0 12.0 0.00 0.00 0.00 60
20180817213922 88 310 10.0 9.0 0.00 0.00 0.00 59
20180817212712 88 268 10.0 12.0 0.00 0.00 0.00 60
20180817212108 88 291 10.0 13.0 0.00 0.00 0.00 61
20180817210252 89 333 4.0 13.0 0.00 0.00 0.00 60
20180817205348 89 302 6.0 10.0 0.00 0.00 0.00 64
20180817204742 89 320 4.0 11.0 0.00 0.00 0.00 64
20180817204440 89 274 5.0 14.0 0.00 0.00 0.00 65
20180817203913 90 319 1.0 16.0 0.00 0.00 0.00 63
20180817203836 90 319 1.0 16.0 0.00 0.00 0.00 63
20180817203533 90 309 6.0 10.0 0.00 0.00 0.00 62
20180817203230 91 261 10.0 10.0 0.00 0.00 0.00 61
20180817202928 91 298 10.0 11.0 0.00 0.00 0.00 61
20180817202324 91 320 4.0 12.0 0.00 0.00 0.00 61
20180817202020 90 1 1.0 14.0 0.00 0.00 0.00 61
20180817200811 91 331 1.0 10.0 0.00 0.00 0.00 63
20180817200207 89 307 4.0 11.0 0.00 0.00 0.00 65
20180817194049 89 327 5.0 10.0 0.00 0.00 0.00 59
20180817193532 88 244 3.0 11.0 0.00 0.00 0.00 60
20180817193443 88 244 3.0 11.0 0.00 0.00 0.00 60
20180817192536 88 277 4.0 14.0 0.00 0.00 0.00 60
20180817191328 88 291 1.0 12.0 0.00 0.00 0.00 62
20180817190116 87 232 7.0 9.0 0.00 0.00 0.00 63
20180817185511 85 306 4.0 13.0 0.00 0.00 0.00 73
20180817185210 85 285 8.0 13.0 0.00 0.00 0.00 73
20180817183656 84 195 0.0 9.0 0.00 0.00 0.00 80
20180817183353 84 322 6.0 9.0 0.00 0.00 0.00
20180817183053 85 340 3.0 9.0 0.00 0.00 0.00 80
20180817181237 83 253 3.0 8.0 0.00 0.00 0.00
20180817175723 83 310 4.0 7.0 0.00 0.00 0.00
20180817175420 82 333 2.0 8.0 0.00 0.00 0.00
20180817175118 81 223 4.0 8.0 0.00 0.00 0.00
20180817174815 81 324 1.0 8.0 0.00 0.00 0.00
20180817174209 81 285 6.0 8.0 0.00 0.00 0.00
20180817173300 80 296 6.0 10.0 0.00 0.00 0.00
20180817172958 80 253 6.0 10.0 0.00 0.00 0.00
20180817171842 79 310 3.0 8.0 0.00 0.00 0.00 77
20180817171750 79 310 3.0 8.0 0.00 0.00 0.00 77
20180817165634 79 168 3.0 6.0 0.00 0.00 0.00 79
20180817165027 79 239 6.0 6.0 0.00 0.00 0.00 79
20180817164727 79 340 0.0 6.0 0.00 0.00 0.00 79
20180817164424 78 168 4.0 6.0 0.00 0.00 0.00 80
20180817164121 78 210 0.0 6.0 0.00 0.00 0.00 82
20180817162911 77 320 0.0 6.0 0.00 0.00 0.00 84
20180817162607 77 80 0.0 6.0 0.00 0.00 0.00 84
20180817162308 77 296 3.0 6.0 0.00 0.00 0.00 85
20180817162239 76 82 0.0 7.0 0.00 0.00 0.00 85
20180817162004 76 82 0.0 7.0 0.00 0.00 0.00 85
20180817161702 76 284 4.0 7.0 0.00 0.00 0.00 86
20180817154642 75 250 4.0 5.0 0.00 0.00 0.00 89
20180817153130 74 243 0.0 5.0 0.00 0.00 0.00
20180817153018 74 243 0.0 5.0 0.00 0.00 0.00 93
20180817152829 74 243 0.0 5.0 0.00 0.00 0.00 93
20180817143950 70 174 1.0 0.0 0.00 0.00 0.00 98
20180817143344 70 70 0.0 2.0 0.00 0.00 0.00 98
20180817142924 69 104 1.0 2.0 0.00 0.00 0.00 98
20180817142740 69 104 1.0 2.0 0.00 0.00 0.00 98
20180817140924 68 52 0.0 0.0 0.00 0.00 0.00 99
20180817140846 67 172 0.0 0.0 0.00 0.00 0.00 99
20180817140623 67 172 0.0 0.0 0.00 0.00 0.00 99
20180817134502 67 172 0.0 0.0 0.00 0.00 0.00 98
20180817133250 67 172 0.0 0.0 0.00 0.00 0.00 98
20180817131434 67 172 0.0 0.0 0.00 0.00 0.00 98
20180817130125 67 172 0.0 0.0 0.00 0.00 0.00 98
20180817124836 67 172 0.0 0.0 0.00 0.00 0.00 98
20180817124518 67 172 0.0 0.0 0.00 0.00 0.00 98
20180817124116 67 172 0.0 0.0 0.00 0.00 0.00 98
20180817123601 68 172 0.0 0.0 0.00 0.00 0.00 98
20180817123312 68 172 0.0 0.0 0.00 0.00 0.00 98
20180817120902 69 172 0.0 0.0 0.00 0.00 0.00 98
20180817115254 69 172 0.0 0.0 0.00 0.00 0.00 98
20180817114450 69 172 0.0 0.0 0.00 0.00 0.00 97
20180817111637 69 220 1.0 0.0 0.00 0.00 0.00 97
20180817111235 70 234 0.0 0.0 0.00 0.00 0.00 97
20180817110833 69 234 0.0 0.0 0.00 0.00 0.00 97
20180817102814 70 234 0.0 0.0 0.00 0.00 0.00 97
20180817102412 70 12 0.0 0.0 0.00 0.00 0.00 97
20180817101608 70 12 0.0 4.0 0.00 0.00 0.00 97
20180817100001 70 90 0.0 0.0 0.00 0.00 0.00 97
20180817094755 70 90 0.0 0.0 0.00 0.00 0.00 97
20180817094353 70 90 0.0 0.0 0.00 0.00 0.00 97
20180817092745 70 90 0.0 0.0 0.00 0.00 0.00 97
20180817090222 70 222 0.0 0.0 0.00 0.00 0.00 97
20180817085933 70 222 0.0 0.0 0.00 0.00 0.00 97
20180817084325 70 137 0.0 3.0 0.00 0.00 0.00 97
20180817082627 70 101 0.0 0.0 0.00 0.00 0.00 97
20180817082315 70 101 0.0 0.0 0.00 0.00 0.00 97
20180817081511 69 101 0.0 0.0 0.00 0.00 0.00 97
20180817080956 69 101 0.0 0.0 0.00 0.00 0.00 97
20180817080707 69 101 0.0 0.0 0.00 0.00 0.00 97
20180817075904 70 127 1.0 0.0 0.00 0.00 0.00 97
20180817075100 70 261 0.0 2.0 0.00 0.00 0.00 97
20180817072931 70 292 0.0 0.0 0.00 0.00 0.00 97
20180817072648 70 292 0.0 0.0 0.00 0.00 0.00 97
20180817072247 70 189 0.0 0.0 0.00 0.00 0.00 97
20180817071732 70 189 0.0 0.0 0.00 0.00 0.00 97
20180817071443 70 189 0.0 0.0 0.00 0.00 0.00 97
20180817070548 69 120 0.0 2.0 0.00 0.00 0.00 97
20180817070238 69 120 0.0 2.0 0.00 0.00 0.00 97
20180817065347 69 97 0.0 0.0 0.00 0.00 0.00 97
20180817065031 69 97 0.0 0.0 0.00 0.00 0.00 97
20180817063826 69 91 1.0 0.0 0.00 0.00 0.00 96
20180817062950 69 54 0.0 1.0 0.00 0.00 0.00 96
20180817062620 69 54 0.0 1.0 0.00 0.00 0.00 96
20180817062218 70 54 0.0 1.0 0.00 0.00 0.00 96
20180817060610 70 43 0.0 0.0 0.00 0.00 0.00 96
20180817060209 70 43 0.0 0.0 0.00 0.00 0.00 96
20180817055806 70 43 0.0 1.0 0.00 0.00 0.00 96
20180817055405 70 43 0.0 4.0 0.00 0.00 0.00 96
20180817055003 70 140 4.0 0.0 0.00 0.00 0.00 96
20180817054601 70 36 0.0 0.0 0.00 0.00 0.00 96
20180817052954 69 209 0.0 2.0 0.00 0.00 0.00 96
20180817050140 71 260 0.0 5.0 0.00 0.00 0.00 96
20180817044935 70 126 1.0 4.0 0.00 0.00 0.00 95
20180817043728 71 216 3.0 3.0 0.00 0.00 0.00 95
20180817043326 71 278 0.0 3.0 0.00 0.00 0.00 95
20180817041719 72 199 0.0 3.0 0.00 0.00 0.00 94
20180817041528 72 229 0.0 4.0 0.00 0.00 0.00 93
20180817041317 72 229 0.0 4.0 0.00 0.00 0.00 93
20180817035710 73 281 0.0 0.0 0.00 0.00 0.00 92
20180817035604 73 281 0.0 0.0 0.00 0.00 0.00 92
20180817035308 73 281 0.0 0.0 0.00 0.00 0.00 92
20180817034906 73 281 0.0 2.0 0.00 0.00 0.00 91
20180817034102 73 267 1.0 2.0 0.00 0.00 0.00 91
20180817033258 73 254 0.0 4.0 0.00 0.00 0.00 90
20180817033053 73 143 0.0 5.0 0.00 0.00 0.00 90
20180817032856 73 143 0.0 5.0 0.00 0.00 0.00 90
20180817030445 74 194 1.0 4.0 0.00 0.00 0.00 87
20180817030043 74 144 0.0 4.0 0.00 0.00 0.00 87
20180817025255 75 240 3.0 4.0 0.00 0.00 0.00 86
20180817024952 75 210 0.0 4.0 0.00 0.00 0.00 86